Regional Weather Roundup
Issued by NWS Cleveland, OH

Home | Current Version | Previous Version | Text Only | Print | Product List | Glossary Off
Versions: 1 2 3 4 5 6 7 8 9 10 11 12 13 14 15 16 17 18 19 20 21 22 23 24 25 26 27 28 29 30 31 32 33 34 35 36 37 38 39 40 41 42 43 44 45 46 47 48 49 50

000
ASUS41 KCLE 231612
RWRCLE
OHIO REGIONAL WEATHER ROUNDUP
NATIONAL WEATHER SERVICE WILMINGTON, OH
1100 AM EST MON JAN 23 2017

NOTE: "FAIR" INDICATES FEW OR NO CLOUDS BELOW 12,000 FEET WITH NO
SIGNIFICANT WEATHER AND/OR OBSTRUCTIONS TO VISIBILITY.

OHZ001>008-015>018-024>027-034-035-043-044-231700-
   NORTHWEST OHIO

CITY           SKY/WX    TMP DP  RH WIND       PRES   REMARKS
DEFIANCE       LGT RAIN  42  40  92 NE10      29.66S FOG
FINDLAY        LGT RAIN  41  37  86 NE15      29.61R
TOLEDO EXPRESS LGT RAIN  39  39 100 NE14      29.67R
TOLEDO EXEC    LGT RAIN  38  37  97 NE9       29.67F FOG
LIMA           LGT RAIN  40  40 100 N10       29.61R
$$

OHZ009>014-019>023-028>033-038-089-231700-
   NORTHEAST OHIO

CITY           SKY/WX    TMP DP  RH WIND       PRES   REMARKS
CLE-HOPKINS    FOG       42  39  89 NE9       29.64R VSB 1/2
CLE-LAKEFRONT  CLOUDY    38  37  97 NE13      29.62S FOG
CUY CO. ARPT   PTSUNNY   45  43  93 NE10      29.63R FOG
LORAIN-ELYRIA  LGT RAIN  39  36  89 NE10      29.62S FOG
ASHTABULA      PTSUNNY   43  41  93 NE8       29.64S
AKRON-CANTON   LGT RAIN  49  43  80 E17       29.57R
WOOSTER        CLOUDY    48  45  89 NE13      29.58R
MANSFIELD      LGT RAIN  44  44 100 N8        29.57S FOG
YOUNGSTOWN     CLOUDY    49  41  74 E13G23    29.60R
$$

OHZ042-051>053-060>062-070>072-077>081-231700-
  SOUTHWEST OHIO

CITY           SKY/WX    TMP DP  RH WIND       PRES   REMARKS
CINC-COVINGTON LGT RAIN  46  44  93 N18       29.54R FOG
CINC-LUNKEN    LGT RAIN  46  45  96 N15       29.55R FOG
HAMILTON       CLOUDY    46  45  96 N10       29.57S FOG
DAYTON         LGT RAIN  43  42  97 N15       29.58R FOG
WRIGHT-PAT AFB CLOUDY    44  44 100 N9        29.56R FOG
DAYTON GENERAL LGT RAIN  45  43  93 N13       29.54S FOG
WILMINGTON     LGT RAIN  46  45  96 N14       29.52R FOG
$$

OHZ036-037-039>041-045>050-054>059-063>069-073>076-082>088-231700-
  CENTRAL AND SOUTHEAST OHIO

CITY           SKY/WX    TMP DP  RH WIND       PRES   REMARKS
COLUMBUS       LGT RAIN  51  47  86 N13       29.52R FOG
OSU AIRPORT    LGT RAIN  49  49 100 N10       29.53R FOG
BOLTON FIELD   DRIZZLE   48  48 100 N12       29.53R
RICKENBACK AFB LGT RAIN  49  48  97 N12       29.51R
NEWARK         CLOUDY    51  46  83 E9        29.51R
MARION         LGT RAIN  45  43  93 NE16G23   29.58R FOG
LANCASTER      LGT RAIN  52  48  86 NE12      29.51R
ZANESVILLE     CLOUDY    50  42  74 NE13      29.51R
NEW PHILLY     CLOUDY    49  45  86 NE10      29.55R
$$




USA.gov is the U.S. government's official web portal to all federal, state and local government web resources and services.